Location: La Table
(45.4742°N, 6.1678°E)
Time: 21:40:07
(UTC+01:00)

ISS - Visible Passes

Search period start: 07 December 2023 00:00
Search period end: 17 December 2023 00:00
Orbit: 415 x 417 km, 51.6° (Epoch: 07 December)

Date Brightness Start Highest point End Pass type
(mag) Time Alt. Az. Time Alt. Az. Time Alt. Az.
07 Dec -0.5 18:17:20 10° WSW 18:18:52 13° SW 18:20:24 10° SSW visible
08 Dec -0.7 17:27:52 10° W 17:30:25 20° SW 17:32:59 10° S visible
15 Dec -0.5 06:56:45 10° SSE 06:58:28 13° SE 07:00:11 10° ESE visible
